When you browse on this site, cookies collect data to enhance your experience and personalize the content and advertising you see.
Visit our Privacy Policy to learn more. By continuing to use the site, you agree to this use of cookies and data.

Previsão horária em Abanto

Hoje, 28 Setembro, Segunda-feira

Tempo Temperatura Precipitação Vento Pressão Humidade
00:00 +8°C° 0 mm 1 m/s 681 mmHg 75%
01:00 +7°C° 0 mm 1 m/s 680 mmHg 76%
02:00 +7°C° 0 mm 1 m/s 680 mmHg 77%
03:00 +7°C° 0 mm 1 m/s 680 mmHg 78%
04:00 +6°C° 0 mm 1 m/s 680 mmHg 79%
05:00 +6°C° 0 mm 1 m/s 680 mmHg 79%
06:00 +6°C° 0 mm 1 m/s 680 mmHg 79%
07:00 +8°C° 0 mm 1 m/s 680 mmHg 68%
08:00 +9°C° 0 mm 2 m/s 681 mmHg 56%
09:00 +12°C° 0 mm 2 m/s 681 mmHg 45%
10:00 +13°C° 0 mm 3 m/s 681 mmHg 38%
11:00 +16°C° 0 mm 3 m/s 682 mmHg 31%
12:00 +18°C° 0 mm 4 m/s 682 mmHg 24%
13:00 +19°C° 0 mm 3 m/s 682 mmHg 23%
14:00 +20°C° 0 mm 3 m/s 682 mmHg 21%
15:00 +20°C° 0 mm 3 m/s 681 mmHg 19%
16:00 +19°C° 0 mm 3 m/s 681 mmHg 26%
17:00 +17°C° 0 mm 2 m/s 681 mmHg 32%
18:00 +15°C° 0 mm 1 m/s 681 mmHg 39%
19:00 +14°C° 0 mm 1 m/s 681 mmHg 43%
20:00 +13°C° 0 mm 1 m/s 682 mmHg 47%
21:00 +13°C° 0 mm 1 m/s 682 mmHg 51%
22:00 +12°C° 0 mm 1 m/s 682 mmHg 52%
23:00 +11°C° 0 mm 0 m/s 682 mmHg 53%

Amanhã, 29 Setembro, Terça-feira

Tempo Temperatura Precipitação Vento Pressão Humidade
00:00 +11°C° 0 mm 0 m/s 682 mmHg 54%
01:00 +10°C° 0 mm 0 m/s 681 mmHg 54%
02:00 +10°C° 0 mm 0 m/s 681 mmHg 54%
03:00 +10°C° 0 mm 0 m/s 681 mmHg 54%
04:00 +9°C° 0 mm 0 m/s 681 mmHg 54%
05:00 +9°C° 0 mm 0 m/s 681 mmHg 55%
06:00 +8°C° 0 mm 0 m/s 681 mmHg 55%
07:00 +11°C° 0 mm 0 m/s 681 mmHg 48%
08:00 +14°C° 0 mm 1 m/s 682 mmHg 41%
09:00 +18°C° 0 mm 1 m/s 683 mmHg 34%
10:00 +19°C° 0 mm 1 m/s 683 mmHg 31%
11:00 +20°C° 0 mm 2 m/s 683 mmHg 27%
12:00 +23°C° 0 mm 2 m/s 683 mmHg 24%
13:00 +23°C° 0 mm 2 m/s 683 mmHg 24%
14:00 +24°C° 0 mm 2 m/s 683 mmHg 23%
15:00 +24°C° 0 mm 2 m/s 682 mmHg 23%
16:00 +21°C° 0 mm 2 m/s 682 mmHg 29%
17:00 +19°C° 0 mm 2 m/s 682 mmHg 35%
18:00 +19°C° 0 mm 1 m/s 681 mmHg 41%
19:00 +18°C° 0 mm 1 m/s 681 mmHg 44%
20:00 +16°C° 0 mm 1 m/s 682 mmHg 47%
21:00 +15°C° 0 mm 1 m/s 682 mmHg 50%
22:00 +14°C° 0 mm 1 m/s 681 mmHg 51%
23:00 +13°C° 0 mm 0 m/s 681 mmHg 52%

Depois de amanhã, 30 Setembro, Quarta-feira

Tempo Temperatura Precipitação Vento Pressão Humidade
00:00 +12°C° 0 mm 0 m/s 681 mmHg 53%
01:00 +12°C° 0 mm 0 m/s 681 mmHg 53%
02:00 +12°C° 0 mm 0 m/s 680 mmHg 54%
03:00 +11°C° 0 mm 0 m/s 680 mmHg 54%
04:00 +12°C° 0 mm 1 m/s 680 mmHg 54%
05:00 +12°C° 0 mm 1 m/s 680 mmHg 54%
06:00 +12°C° 0 mm 1 m/s 680 mmHg 54%
07:00 +14°C° 0 mm 1 m/s 681 mmHg 47%
08:00 +18°C° 0 mm 1 m/s 681 mmHg 40%
09:00 +20°C° 0 mm 1 m/s 682 mmHg 34%
10:00 +20°C° 0 mm 2 m/s 682 mmHg 31%
11:00 +22°C° 0 mm 3 m/s 682 mmHg 28%
12:00 +24°C° 0 mm 3 m/s 682 mmHg 26%
13:00 +25°C° 0 mm 4 m/s 681 mmHg 25%
14:00 +26°C° 0 mm 4 m/s 681 mmHg 23%
15:00 +26°C° 0 mm 5 m/s 681 mmHg 22%
16:00 +23°C° 0 mm 4 m/s 680 mmHg 26%
17:00 +22°C° 0 mm 4 m/s 680 mmHg 30%
18:00 +20°C° 0 mm 3 m/s 680 mmHg 34%
19:00 +19°C° 0 mm 3 m/s 679 mmHg 36%
20:00 +18°C° 0 mm 3 m/s 679 mmHg 39%
21:00 +17°C° 0 mm 2 m/s 679 mmHg 41%
22:00 +16°C° 0 mm 2 m/s 679 mmHg 42%
23:00 +15°C° 0 mm 2 m/s 679 mmHg 44%

1 Outubro, Quinta-feira

Tempo Temperatura Precipitação Vento Pressão Humidade
00:00 +15°C° 0 mm 2 m/s 678 mmHg 45%
01:00 +14°C° 0 mm 2 m/s 678 mmHg 46%
02:00 +14°C° 0 mm 2 m/s 678 mmHg 47%
03:00 +14°C° 0 mm 2 m/s 677 mmHg 47%
04:00 +12°C° 0 mm 3 m/s 677 mmHg 49%
05:00 +12°C° 0 mm 4 m/s 677 mmHg 51%
06:00 +12°C° 0 mm 4 m/s 677 mmHg 53%
07:00 +13°C° 0 mm 5 m/s 678 mmHg 52%
08:00 +15°C° 0 mm 6 m/s 678 mmHg 50%
09:00 +16°C° 0 mm 7 m/s 679 mmHg 48%
10:00 +17°C° 0 mm 8 m/s 679 mmHg 48%
11:00 +18°C° 0 mm 8 m/s 679 mmHg 48%
12:00 +19°C° 0 mm 9 m/s 679 mmHg 47%
13:00 +20°C° 0 mm 8 m/s 679 mmHg 47%
14:00 +20°C° 0 mm 8 m/s 678 mmHg 47%
15:00 +20°C° 0 mm 8 m/s 678 mmHg 46%
16:00 +18°C° 0 mm 7 m/s 678 mmHg 49%
17:00 +17°C° 0 mm 6 m/s 678 mmHg 52%
18:00 +16°C° 0 mm 6 m/s 678 mmHg 55%
19:00 +15°C° 0 mm 5 m/s 678 mmHg 59%
20:00 +14°C° 0 mm 4 m/s 678 mmHg 63%
21:00 +13°C° 0 mm 3 m/s 678 mmHg 67%
22:00 +13°C° 0 mm 3 m/s 678 mmHg 68%
23:00 +13°C° 0 mm 2 m/s 677 mmHg 70%

2 Outubro, Sexta-feira

Tempo Temperatura Precipitação Vento Pressão Humidade
00:00 +13°C° 0 mm 2 m/s 677 mmHg 72%
01:00 +12°C° 0 mm 2 m/s 676 mmHg 72%
02:00 +12°C° 0 mm 2 m/s 676 mmHg 73%
03:00 +12°C° 0 mm 2 m/s 675 mmHg 73%
04:00 +11°C° 0 mm 3 m/s 675 mmHg 74%
05:00 +11°C° 0 mm 3 m/s 675 mmHg 74%
06:00 +11°C° 0 mm 4 m/s 675 mmHg 75%
07:00 +12°C° 0 mm 5 m/s 675 mmHg 69%
08:00 +13°C° 0 mm 6 m/s 675 mmHg 64%
09:00 +14°C° 0 mm 7 m/s 675 mmHg 58%
10:00 +16°C° 0 mm 8 m/s 675 mmHg 53%
11:00 +17°C° 0 mm 9 m/s 674 mmHg 47%
12:00 +19°C° 0 mm 10 m/s 674 mmHg 42%
13:00 +19°C° 0 mm 11 m/s 673 mmHg 43%
14:00 +19°C° 0 mm 11 m/s 673 mmHg 44%
15:00 +19°C° 0 mm 12 m/s 672 mmHg 44%
16:00 +18°C° 0 mm 13 m/s 671 mmHg 49%
17:00 +17°C° 0 mm 13 m/s 670 mmHg 53%
18:00 +15°C° 0 mm 14 m/s 669 mmHg 57%
19:00 +14°C° 0.1 mm 15 m/s 668 mmHg 61%
20:00 +14°C° 0.1 mm 17 m/s 668 mmHg 65%
21:00 +14°C° 0.1 mm 18 m/s 667 mmHg 69%
22:00 +13°C° 1.4 mm 16 m/s 667 mmHg 72%
23:00 +13°C° 1.4 mm 14 m/s 667 mmHg 74%

3 Outubro, Sábado

Tempo Temperatura Precipitação Vento Pressão Humidade
00:00 +12°C° 1.4 mm 12 m/s 667 mmHg 77%
01:00 +10°C° 0.7 mm 12 m/s 667 mmHg 74%
02:00 +11°C° 0.7 mm 11 m/s 667 mmHg 72%
03:00 +11°C° 0.7 mm 10 m/s 667 mmHg 70%
04:00 +10°C° 0 mm 9 m/s 667 mmHg 72%
05:00 +9°C° 0 mm 8 m/s 668 mmHg 74%
06:00 +8°C° 0 mm 7 m/s 668 mmHg 76%
07:00 +7°C° 0 mm 8 m/s 669 mmHg 70%
08:00 +8°C° 0 mm 9 m/s 669 mmHg 64%
09:00 +9°C° 0 mm 10 m/s 670 mmHg 58%
10:00 +9°C° 0 mm 10 m/s 670 mmHg 53%
11:00 +11°C° 0 mm 10 m/s 670 mmHg 48%
12:00 +12°C° 0 mm 11 m/s 670 mmHg 43%
13:00 +12°C° 0 mm 11 m/s 670 mmHg 43%
14:00 +12°C° 0 mm 11 m/s 669 mmHg 44%
15:00 +11°C° 0 mm 11 m/s 669 mmHg 44%
16:00 +11°C° 0 mm 10 m/s 669 mmHg 47%
17:00 +10°C° 0 mm 9 m/s 670 mmHg 49%
18:00 +9°C° 0 mm 7 m/s 670 mmHg 51%
19:00 +8°C° 0.1 mm 7 m/s 670 mmHg 56%
20:00 +6°C° 0.1 mm 8 m/s 671 mmHg 62%
21:00 +6°C° 0.1 mm 8 m/s 671 mmHg 67%
22:00 +5°C° 0 mm 7 m/s 671 mmHg 67%
23:00 +5°C° 0 mm 7 m/s 671 mmHg 68%
Mostrar mais